Flag for Germany Weather past 2 weeks in Bocholt, North Rhine-Westphalia, Germany

Now
59 °F

Passing clouds.


Feels Like: 58 °F
Forecast: 41 / 62 °F
Wind: 7 mph from Southeast

Location: Niederrhein


UV Index: 3 (Moderate)

Visibility: N/A


Pressure: 30.36 "Hg

Humidity: 31%

Dew point: 28 °F

Location of BocholtLocation

Historic Weather in Bocholt

°F

Bocholt temperature yesterday

Maximum temperature yesterday: 52 °F (at 3:50 PM)
Minimum temperature yesterday: 37 °F (at 4:50 AM)
Average temperature yesterday: 46 °F

Past Weeks' High & Low Weather Summary

 TemperatureHumidityPressure
High73 °F (Apr 3, 3:50 PM)100% (Apr 5, 6:20 AM)30.45 "Hg (Apr 5, 6:20 AM)
Low30 °F (Apr 16, 5:50 AM)31% (Apr 16, 4:50 PM)29.59 "Hg (Apr 3, 11:50 AM)
Average55 °F68%30.02 "Hg
* Reported Apr 1 6:20 PM — Apr 16 6:20 PM, Bocholt, Weather by CustomWeather, © 2014

Note: Actual official high and low records may vary slightly from our data, if they occured in-between our weather recording intervals... More about our weather records

Advertising

Historic Weather Conditions — Data for Previous 24 hours

 ConditionsComfort  
Time TempWeatherWind HumidityBarometerVisibility
6:20 PM
Apr 16
59 °FPassing clouds.6 mph31%30.36 "HgN/A
5:50 PM59 °FPassing clouds.7 mph31%30.36 "HgN/A
5:20 PM59 °FSunny.8 mph31%30.36 "Hg10 mi
4:50 PM59 °FPassing clouds.6 mph31%30.39 "HgN/A
4:20 PM59 °FPassing clouds.6 mph34%30.39 "HgN/A
3:50 PM59 °FSunny.5 mph34%30.39 "Hg10 mi
3:20 PM57 °FSunny.6 mph36%30.42 "Hg10 mi
2:50 PM57 °FSunny.5 mph39%30.42 "Hg10 mi
2:20 PM55 °FPassing clouds.7 mph38%30.42 "HgN/A
1:50 PM55 °FSunny.6 mph41%30.42 "Hg10 mi
1:20 PM55 °FSunny.6 mph44%30.45 "Hg10 mi
12:50 PM55 °FSunny.5 mph47%30.45 "Hg10 mi
12:20 PM54 °FSunny.7 mph51%30.45 "Hg10 mi
11:50 AM52 °FPassing clouds.7 mph54%30.45 "HgN/A
11:20 AM52 °FPassing clouds.8 mph62%30.45 "HgN/A
10:50 AM50 °FPassing clouds.6 mph62%30.45 "HgN/A
10:20 AM48 °FSunny.5 mph66%30.45 "Hg10 mi
9:50 AM46 °FPassing clouds.5 mph71%30.45 "HgN/A
9:20 AM45 °FPassing clouds.5 mph76%30.45 "HgN/A
8:50 AM41 °FSunny.3 mph81%30.45 "Hg10 mi
8:20 AM39 °FClear.3 mph87%30.45 "Hg10 mi
7:50 AM36 °FClear.3 mph93%30.45 "Hg10 mi
7:20 AM34 °FClear.2 mph100%30.45 "Hg10 mi
6:50 AM30 °FClear.2 mph100%30.45 "Hg10 mi
5:50 AM30 °FClear.No wind100%30.42 "Hg10 mi
5:20 AM32 °FClear.2 mph100%30.42 "Hg10 mi
4:50 AM32 °FClear.1 mph100%30.42 "Hg10 mi
11:50 PM
Apr 15
43 °FClear.1 mph71%30.39 "Hg10 mi
11:20 PM43 °FClear.1 mph71%30.39 "Hg10 mi
10:50 PM43 °FClear.No wind71%30.39 "Hg10 mi
10:20 PM43 °FSunny.1 mph71%30.39 "Hg10 mi
9:50 PM45 °FSunny.2 mph66%30.39 "Hg10 mi
9:20 PM45 °FSunny.2 mph61%30.36 "Hg10 mi
8:50 PM46 °FSunny.2 mph57%30.36 "Hg10 mi
8:20 PM48 °FSunny.2 mph54%30.36 "Hg10 mi
7:50 PM48 °FSunny.5 mph54%30.33 "Hg10 mi
7:20 PM50 °FSunny.6 mph50%30.33 "Hg10 mi
Weather by CustomWeather, © 2014

See weather overview